Showing default

YAOGAN-39 01C, 57731

Orbit data source: Space-Track

YAOGAN-39 01C, 57731 is a payload satellite owned by PLA GAD (CN) in LEO that was launched on Thu, 31 Aug 2023 UTC via a CHANG ZHENG 2D launch vehicle from the Xichang Space Center, China (XSC). Payload-class satellites include a variety of spacecraft equipped with specific instruments for various scientific and technological missions. These include communications satellites like Starlink; space stations such as the ISS; scientific satellites like the Hubble; Earth observation satellites from companies like Planet Labs, Umbra, and HawkEye 360; GPS; miniature CubeSats for education and research; and military/defense satellites.

Loading next visibility...
Identifier
57731, 2023-130E
Orbit
LEO
Country
Flag of CNCN / PRC
Related business
Manufacturer
DFH
Mission
Operational Defense Sigint
Bus & Motor
Unknown
Mass
~300 kg wet, ~300 kg dry
Launch date (UTC)
2023-08-31 (2 years ago)
Launch vehicle
CHANG ZHENG 2D
Launch site
Xichang Space Center, China (XSC)
Object type
Payload
Rocket body
Debris
Shape & HBR
Box + 2 Pan, 2.5 m
Radar Cross Section
11.063 m², Large (>1 m²)

Expand to show TLE details & history
Last TLE update: 8 hours ago

TLE from 8 hours ago
0 YAOGAN-39 01C
1 57731U 23130E   25340.91809824  .00009778  00000-0  47655-3 0  9998
2 57731  34.9938 270.6655 0007531 242.7299 117.2647 15.17564837126243
Epoch: 2025-12-06T22:02Z
TLE epoch observation values (Epoch: 2025-12-06T22:02:03.687Z)
Latitude
-0.00003°
Longitude
-135.78886°
Altitude
514.492 km
Speed
7.607 km/s
True Right ascension
18h 02m 39s
True Declination
0° 00' 00"
Sunlit
Object was in daylight at epoch
Visualization orbit readout
Latitude
Unknown
Longitude
Unknown
Altitude
Unknown
Speed
Unknown
Apparent Right ascension
Unknown
Apparent Declination
Unknown
Sunlit
N/A
Visualization observer readout
Local Sidereal Time
04:23:43
Azimuth
Unknown
Elevation
Unknown
Doppler factor
Unknown
Orbital elements
Apogee altitude
521.639 km
Perigee altitude
511.254 km
Semi-major axis
6,894.583 km
Eccentricity
0.00075
Inclination
34.9938°
RAAN
270.6655°
Arg. of periapsis
242.7299°
True anomaly
117.34138°
Mean anomaly
117.2647°
Eccentric anomaly
117.30304°
Mean motion
3.79124 °/min
Orbital period
94.96 mins
BSTAR
0.00047655
Loading maneuver chart data...
Computing Atmospheric mass density...
Loading historical data...
Loading historical data...
Loading historical data...
Loading historical data...
Loading historical data...
Loading historical data...
Loading historical data...
Other satellites on launch #130 in the year 2023 (2023-08-31 UTC)

Documentation

Showing up to 5 results
|